Starlink 31696

operational
NORAD ID: 59435 Int'l Des: 2024-065 Owner: SPXS Country: US Constellation: starlink
LEOCIRCULAR

About Starlink 31696

Description loading...

Live Position

Loading 3D Globe...

Upcoming Passes

Altitude History

Altitude vs Time

uPlot chart will show altitude changes over time

Two-Line Element Set

1 59435U 24065Q 26035.39661984 .00001059 00000-0 47887-4 0 9998
2 59435 53.1568 76.2063 0001301 80.1155 279.9992 15.30191459103835
Epoch: Feb 4, 2026 • Age: 31 hours

Current Status

Altitude 484.2 km
Velocity 7.62 km/s
Sub-Earth Point -27.90°S, 105.94°W
Launch Date Apr 7, 2024
Age 1.8 years
Type internet

Technical Details

Classification Payload
Mass 730.00 kg
Dry Mass 700.00 kg
Total Mass 730.00 kg
Length 0.30 m
Diameter 4.10 m
Span 29.00 m
Shape Box + pan
Manufacturer SPXS
Bus Type Starlink V2M
Phase Status In Orbit
Owner/State SPXS/US

Large Constellations

Loading constellations...